Time,TemperatureF,DewpointF,PressureIn,WindDirection,WindDirectionDegrees,WindSpeedMPH,WindSpeedGustMPH,Humidity,HourlyPrecipIn,Conditions,Clouds,dailyrainin,SolarRadiationWatts/m^2,SoftwareType,DateUTC
2014-03-23 00:02:00,65.0,44.0,-100.00,North,-999,0.0,0.0,46,0.00,,,0.00,0.000000,,2014-03-23 07:02:00,
2014-03-23 00:11:00,65.0,44.0,-100.00,North,-999,0.0,0.0,46,0.00,,,0.00,0.000000,,2014-03-23 07:11:00,
2014-03-23 00:42:00,66.0,43.0,-100.00,North,-999,0.0,0.0,44,0.00,,,0.00,0.000000,,2014-03-23 07:42:00,
2014-03-23 00:52:00,66.0,43.0,-100.00,North,-999,0.0,0.0,44,0.00,,,0.00,0.000000,,2014-03-23 07:52:00,
2014-03-23 01:02:00,66.0,43.0,-100.00,North,-999,0.0,0.0,44,0.00,,,0.00,0.000000,,2014-03-23 08:02:00,
2014-03-23 01:11:00,66.0,43.0,-100.00,North,-999,0.0,0.0,44,0.00,,,0.00,0.000000,,2014-03-23 08:11:00,
2014-03-23 01:42:00,62.0,49.0,-100.00,SE,133,5.0,8.0,62,0.00,,,0.00,0.000000,,2014-03-23 08:42:00,
2014-03-23 01:51:00,62.0,49.0,-100.00,SE,133,5.0,8.0,62,0.00,,,0.00,0.000000,,2014-03-23 08:51:00,
2014-03-23 02:02:00,62.0,49.0,-100.00,SE,133,5.0,8.0,62,0.00,,,0.00,0.000000,,2014-03-23 09:02:00,
2014-03-23 02:11:00,62.0,49.0,-100.00,SE,133,5.0,8.0,62,0.00,,,0.00,0.000000,,2014-03-23 09:11:00,
2014-03-23 02:43:00,63.0,45.0,-100.00,North,-999,0.0,8.0,51,0.00,,,0.00,0.000000,,2014-03-23 09:43:00,
2014-03-23 02:53:00,63.0,45.0,-100.00,North,-999,0.0,8.0,51,0.00,,,0.00,0.000000,,2014-03-23 09:53:00,
2014-03-23 03:03:00,63.0,45.0,-100.00,North,-999,0.0,8.0,51,0.00,,,0.00,0.000000,,2014-03-23 10:03:00,
2014-03-23 03:12:00,63.0,45.0,-100.00,North,-999,0.0,8.0,51,0.00,,,0.00,0.000000,,2014-03-23 10:12:00,
2014-03-23 03:43:00,62.0,45.0,-100.00,North,-999,0.0,0.0,53,0.00,,,0.00,0.000000,,2014-03-23 10:43:00,
2014-03-23 03:54:00,62.0,45.0,-100.00,North,-999,0.0,0.0,53,0.00,,,0.00,0.000000,,2014-03-23 10:54:00,
2014-03-23 04:02:00,62.0,45.0,-100.00,North,-999,0.0,0.0,53,0.00,,,0.00,0.000000,,2014-03-23 11:02:00,
2014-03-23 04:11:00,62.0,45.0,-100.00,North,-999,0.0,0.0,53,0.00,,,0.00,0.000000,,2014-03-23 11:11:00,
2014-03-23 04:42:00,61.0,44.0,-100.00,North,-999,0.0,0.0,54,0.00,,,0.00,0.000000,,2014-03-23 11:42:00,
2014-03-23 04:52:00,61.0,44.0,-100.00,North,-999,0.0,0.0,54,0.00,,,0.00,0.000000,,2014-03-23 11:52:00,
2014-03-23 05:02:00,61.0,44.0,-100.00,North,-999,0.0,0.0,54,0.00,,,0.00,0.000000,,2014-03-23 12:02:00,
2014-03-23 05:12:00,61.0,44.0,-100.00,North,-999,0.0,0.0,54,0.00,,,0.00,0.000000,,2014-03-23 12:12:00,
2014-03-23 05:42:00,61.0,44.0,-100.00,North,-999,0.0,0.0,54,0.00,,,0.00,0.000000,,2014-03-23 12:42:00,
2014-03-23 05:53:00,61.0,44.0,-100.00,North,-999,0.0,0.0,54,0.00,,,0.00,0.000000,,2014-03-23 12:53:00,
2014-03-23 06:02:00,61.0,44.0,-100.00,North,-999,0.0,0.0,54,0.00,,,0.00,0.000000,,2014-03-23 13:02:00,
2014-03-23 06:12:00,61.0,44.0,-100.00,North,-999,0.0,0.0,54,0.00,,,0.00,0.000000,,2014-03-23 13:12:00,
2014-03-23 06:42:00,58.0,44.0,-100.00,North,-999,0.0,0.0,59,0.00,,,0.00,0.000000,,2014-03-23 13:42:00,
2014-03-23 06:52:00,58.0,44.0,-100.00,North,-999,0.0,0.0,59,0.00,,,0.00,0.000000,,2014-03-23 13:52:00,
2014-03-23 07:02:00,58.0,44.0,-100.00,North,-999,0.0,0.0,59,0.00,,,0.00,0.000000,,2014-03-23 14:02:00,
2014-03-23 07:11:00,58.0,44.0,-100.00,North,-999,0.0,0.0,59,0.00,,,0.00,0.000000,,2014-03-23 14:11:00,
2014-03-23 07:42:00,61.0,44.0,-100.00,North,-999,0.0,0.0,54,0.00,,,0.00,19.000000,,2014-03-23 14:42:00,
2014-03-23 07:52:00,61.0,44.0,-100.00,North,-999,0.0,0.0,54,0.00,,,0.00,19.000000,,2014-03-23 14:52:00,
2014-03-23 08:02:00,61.0,44.0,-100.00,North,-999,0.0,0.0,54,0.00,,,0.00,19.000000,,2014-03-23 15:02:00,
2014-03-23 08:11:00,61.0,44.0,-100.00,North,-999,0.0,0.0,54,0.00,,,0.00,19.000000,,2014-03-23 15:11:00,
2014-03-23 08:44:00,63.0,49.0,-100.00,North,-999,0.0,0.0,60,0.00,,,0.00,185.000000,,2014-03-23 15:44:00,
2014-03-23 08:53:00,63.0,49.0,-100.00,North,-999,0.0,0.0,60,0.00,,,0.00,185.000000,,2014-03-23 15:53:00,
2014-03-23 09:03:00,63.0,49.0,-100.00,North,-999,0.0,0.0,60,0.00,,,0.00,185.000000,,2014-03-23 16:03:00,
2014-03-23 09:12:00,63.0,49.0,-100.00,North,-999,0.0,0.0,60,0.00,,,0.00,185.000000,,2014-03-23 16:12:00,
2014-03-23 09:54:00,70.0,55.0,-100.00,SSE,159,4.0,8.0,58,0.00,,,0.00,402.000000,,2014-03-23 16:54:00,
2014-03-23 10:03:00,70.0,55.0,-100.00,SSE,159,4.0,8.0,58,0.00,,,0.00,402.000000,,2014-03-23 17:03:00,
2014-03-23 10:12:00,70.0,55.0,-100.00,SSE,159,4.0,8.0,58,0.00,,,0.00,402.000000,,2014-03-23 17:12:00,
2014-03-23 10:43:00,75.0,54.0,-100.00,WNW,292,2.0,8.0,48,0.00,,,0.00,598.000000,,2014-03-23 17:43:00,
2014-03-23 10:52:00,75.0,54.0,-100.00,WNW,292,2.0,8.0,48,0.00,,,0.00,598.000000,,2014-03-23 17:52:00,
2014-03-23 11:02:00,75.0,54.0,-100.00,WNW,292,2.0,8.0,48,0.00,,,0.00,598.000000,,2014-03-23 18:02:00,
2014-03-23 11:11:00,75.0,54.0,-100.00,WNW,292,2.0,8.0,48,0.00,,,0.00,598.000000,,2014-03-23 18:11:00,
2014-03-23 11:42:00,74.0,52.0,-100.00,WSW,244,5.0,8.0,47,0.00,,,0.00,481.000000,,2014-03-23 18:42:00,
2014-03-23 11:52:00,74.0,52.0,-100.00,WSW,244,5.0,8.0,47,0.00,,,0.00,481.000000,,2014-03-23 18:52:00,
2014-03-23 12:01:00,74.0,52.0,-100.00,WSW,244,5.0,8.0,47,0.00,,,0.00,481.000000,,2014-03-23 19:01:00,
2014-03-23 12:11:00,74.0,52.0,-100.00,WSW,244,5.0,8.0,47,0.00,,,0.00,481.000000,,2014-03-23 19:11:00,
2014-03-23 12:42:00,79.0,50.0,-100.00,WNW,294,6.0,9.0,36,0.00,,,0.00,780.000000,,2014-03-23 19:42:00,
2014-03-23 12:52:00,79.0,50.0,-100.00,WNW,294,6.0,9.0,36,0.00,,,0.00,780.000000,,2014-03-23 19:52:00,
2014-03-23 13:02:00,79.0,50.0,-100.00,WNW,294,6.0,9.0,36,0.00,,,0.00,780.000000,,2014-03-23 20:02:00,
2014-03-23 13:12:00,79.0,50.0,-100.00,WNW,294,6.0,9.0,36,0.00,,,0.00,780.000000,,2014-03-23 20:12:00,
2014-03-23 13:42:00,82.0,49.0,-100.00,NW,317,6.0,9.0,32,0.00,,,0.00,889.000000,,2014-03-23 20:42:00,
2014-03-23 13:52:00,82.0,49.0,-100.00,NW,317,6.0,9.0,32,0.00,,,0.00,889.000000,,2014-03-23 20:52:00,
2014-03-23 14:01:00,82.0,49.0,-100.00,NW,317,6.0,9.0,32,0.00,,,0.00,889.000000,,2014-03-23 21:01:00,
2014-03-23 14:12:00,82.0,49.0,-100.00,NW,317,6.0,9.0,32,0.00,,,0.00,889.000000,,2014-03-23 21:12:00,
2014-03-23 14:43:00,85.0,46.0,-100.00,WNW,295,6.0,10.0,26,0.00,,,-99.99,861.000000,,2014-03-23 21:43:00,
2014-03-23 14:53:00,85.0,46.0,-100.00,WNW,295,6.0,10.0,26,0.00,,,-99.99,861.000000,,2014-03-23 21:53:00,
2014-03-23 15:03:00,85.0,46.0,-100.00,WNW,295,6.0,10.0,26,0.00,,,-99.99,861.000000,,2014-03-23 22:03:00,
2014-03-23 15:12:00,85.0,46.0,-100.00,WNW,295,6.0,10.0,26,0.00,,,-99.99,861.000000,,2014-03-23 22:12:00,
2014-03-23 15:43:00,86.0,43.0,-100.00,WSW,241,5.0,9.0,22,0.00,,,0.00,745.000000,,2014-03-23 22:43:00,
2014-03-23 15:53:00,86.0,43.0,-100.00,WSW,241,5.0,9.0,22,0.00,,,0.00,745.000000,,2014-03-23 22:53:00,
2014-03-23 16:03:00,86.0,43.0,-100.00,WSW,241,5.0,9.0,22,0.00,,,0.00,745.000000,,2014-03-23 23:03:00,
2014-03-23 16:11:00,86.0,43.0,-100.00,WSW,241,5.0,9.0,22,0.00,,,0.00,745.000000,,2014-03-23 23:11:00,
2014-03-23 16:42:00,88.0,39.0,-100.00,WSW,254,3.0,10.0,18,0.00,,,0.00,599.000000,,2014-03-23 23:42:00,
2014-03-23 16:53:00,88.0,39.0,-100.00,WSW,254,3.0,10.0,18,0.00,,,0.00,599.000000,,2014-03-23 23:53:00,
2014-03-23 17:02:00,88.0,39.0,-100.00,WSW,254,3.0,10.0,18,0.00,,,0.00,599.000000,,2014-03-24 00:02:00,
2014-03-23 17:12:00,88.0,39.0,-100.00,WSW,254,3.0,10.0,18,0.00,,,0.00,599.000000,,2014-03-24 00:12:00,
2014-03-23 17:42:00,85.0,39.0,-100.00,West,264,4.0,10.0,20,0.00,,,-99.99,316.000000,,2014-03-24 00:42:00,
2014-03-23 17:52:00,85.0,39.0,-100.00,West,264,4.0,10.0,20,0.00,,,-99.99,316.000000,,2014-03-24 00:52:00,
2014-03-23 18:02:00,85.0,39.0,-100.00,West,264,4.0,10.0,20,0.00,,,-99.99,316.000000,,2014-03-24 01:02:00,
2014-03-23 18:11:00,85.0,39.0,-100.00,West,264,4.0,10.0,20,0.00,,,-99.99,316.000000,,2014-03-24 01:11:00,
2014-03-23 18:42:00,83.0,42.0,-100.00,WSW,238,4.0,7.0,24,0.00,,,0.00,132.000000,,2014-03-24 01:42:00,
2014-03-23 18:52:00,83.0,42.0,-100.00,WSW,238,4.0,7.0,24,0.00,,,0.00,132.000000,,2014-03-24 01:52:00,
2014-03-23 19:02:00,83.0,42.0,-100.00,WSW,238,4.0,7.0,24,0.00,,,0.00,132.000000,,2014-03-24 02:02:00,
2014-03-23 19:11:00,83.0,42.0,-100.00,WSW,238,4.0,7.0,24,0.00,,,0.00,132.000000,,2014-03-24 02:11:00,